contact:dominique.lefevre@mio.osupytheas.fr, maurice.libes@osupytheas.fr, didier.mallarino@osupytheas.fr
Project:EMSO http://www.emso-fr.org/EMSO-France
Depth: 2436.0 m
Title:EMSO Ligure Ouest : Data MII capteur CSTAR
DateTime,Latitude,Longitude,Instrument_Serial,Reference_Counts,Signal_Counts,Corrected_Signal_raw_counts,Calculated_Beam_c_inverse_meters,Internal_thermistor_counts
DateTime,Latitude,Longitude,Instrument_Serial,Reference_Counts,Signal_Counts,Corrected_Signal_raw_counts,Calculated_Beam_c_inverse_meters,Internal_thermistor_counts
2022-11-27T00:02:46,42.805,6.029,CST-1368DR,4480,5143,12208,0.985,551
2022-11-27T00:05:48,42.805,6.029,CST-1368DR,4480,5142,12206,0.985,551
2022-11-27T00:08:50,42.805,6.029,CST-1368DR,4480,5142,12207,0.985,551
2022-11-27T00:11:51,42.805,6.029,CST-1368DR,4480,5142,12205,0.986,551
2022-11-27T00:14:53,42.805,6.029,CST-1368DR,4480,5141,12204,0.986,551
2022-11-27T00:17:54,42.805,6.029,CST-1368DR,4480,5142,12206,0.985,551
2022-11-27T00:20:56,42.805,6.029,CST-1368DR,4480,5142,12207,0.985,551
2022-11-27T00:23:57,42.805,6.029,CST-1368DR,4480,5142,12205,0.986,551
2022-11-27T00:26:59,42.805,6.029,CST-1368DR,4480,5142,12206,0.985,551
2022-11-27T00:30:01,42.805,6.029,CST-1368DR,4480,5141,12204,0.986,551
2022-11-27T00:33:02,42.805,6.029,CST-1368DR,4480,5143,12208,0.985,551
2022-11-27T00:36:04,42.805,6.029,CST-1368DR,4480,5142,12206,0.985,551
2022-11-27T00:39:05,42.805,6.029,CST-1368DR,4480,5142,12205,0.986,551
2022-11-27T00:42:07,42.805,6.029,CST-1368DR,4480,5141,12204,0.986,551
2022-11-27T00:45:08,42.805,6.029,CST-1368DR,4480,5141,12204,0.986,551
2022-11-27T00:48:10,42.805,6.029,CST-1368DR,4480,5140,12201,0.987,551
2022-11-27T00:51:12,42.805,6.029,CST-1368DR,4480,5141,12205,0.986,551
2022-11-27T00:54:13,42.805,6.029,CST-1368DR,4480,5144,12210,0.984,551
2022-11-27T00:57:15,42.805,6.029,CST-1368DR,4480,5143,12209,0.984,551
2022-11-27T01:00:16,42.805,6.029,CST-1368DR,4480,5143,12208,0.985,551
2022-11-27T01:03:18,42.805,6.029,CST-1368DR,4480,5142,12207,0.985,551
2022-11-27T01:06:20,42.805,6.029,CST-1368DR,4480,5142,12205,0.986,551
2022-11-27T01:09:21,42.805,6.029,CST-1368DR,4480,5141,12204,0.986,551
2022-11-27T01:12:23,42.805,6.029,CST-1368DR,4480,5142,12207,0.985,551
2022-11-27T01:15:24,42.805,6.029,CST-1368DR,4480,5142,12207,0.985,551
2022-11-27T01:18:26,42.805,6.029,CST-1368DR,4480,5141,12205,0.986,551
2022-11-27T01:21:27,42.805,6.029,CST-1368DR,4480,5142,12207,0.985,551
2022-11-27T01:24:29,42.805,6.029,CST-1368DR,4480,5141,12204,0.986,551
2022-11-27T01:27:31,42.805,6.029,CST-1368DR,4480,5142,12206,0.985,551
2022-11-27T01:30:32,42.805,6.029,CST-1368DR,4480,5141,12205,0.986,551
2022-11-27T01:33:34,42.805,6.029,CST-1368DR,4480,5142,12205,0.986,551
2022-11-27T01:36:35,42.805,6.029,CST-1368DR,4480,5141,12205,0.986,551
2022-11-27T01:39:37,42.805,6.029,CST-1368DR,4480,5141,12203,0.986,551
2022-11-27T01:42:38,42.805,6.029,CST-1368DR,4480,5141,12204,0.986,551
2022-11-27T01:45:40,42.805,6.029,CST-1368DR,4480,5139,12199,0.988,551
2022-11-27T01:48:42,42.805,6.029,CST-1368DR,4480,5141,12204,0.986,551
2022-11-27T01:51:43,42.805,6.029,CST-1368DR,4480,5141,12204,0.986,551
2022-11-27T01:54:45,42.805,6.029,CST-1368DR,4480,5141,12205,0.986,551
2022-11-27T01:57:46,42.805,6.029,CST-1368DR,4480,5141,12204,0.986,551
2022-11-27T02:00:48,42.805,6.029,CST-1368DR,4480,5142,12207,0.985,551
2022-11-27T02:03:50,42.805,6.029,CST-1368DR,4480,5141,12204,0.986,551
2022-11-27T02:06:51,42.805,6.029,CST-1368DR,4480,5141,12204,0.986,551
2022-11-27T02:09:53,42.805,6.029,CST-1368DR,4480,5142,12205,0.986,551
2022-11-27T02:12:54,42.805,6.029,CST-1368DR,4480,5141,12204,0.986,551
2022-11-27T02:15:56,42.805,6.029,CST-1368DR,4480,5142,12205,0.986,551
2022-11-27T02:18:57,42.805,6.029,CST-1368DR,4480,5141,12205,0.986,551
2022-11-27T02:21:59,42.805,6.029,CST-1368DR,4480,5141,12203,0.986,551
2022-11-27T02:25:01,42.805,6.029,CST-1368DR,4480,5141,12204,0.986,551
2022-11-27T02:28:02,42.805,6.029,CST-1368DR,4480,5141,12204,0.986,551
2022-11-27T02:31:04,42.805,6.029,CST-1368DR,4480,5142,12205,0.986,551
2022-11-27T02:34:05,42.805,6.029,CST-1368DR,4480,5142,12207,0.985,551
2022-11-27T02:37:07,42.805,6.029,CST-1368DR,4480,5142,12205,0.986,551
2022-11-27T02:40:09,42.805,6.029,CST-1368DR,4480,5141,12204,0.986,551
2022-11-27T02:43:10,42.805,6.029,CST-1368DR,4480,5142,12207,0.985,551
2022-11-27T02:46:12,42.805,6.029,CST-1368DR,4480,5142,12207,0.985,551
2022-11-27T02:49:13,42.805,6.029,CST-1368DR,4480,5141,12205,0.986,551
2022-11-27T02:52:15,42.805,6.029,CST-1368DR,4480,5142,12207,0.985,551
2022-11-27T02:55:16,42.805,6.029,CST-1368DR,4480,5141,12204,0.986,551
2022-11-27T02:58:18,42.805,6.029,CST-1368DR,4480,5141,12205,0.986,551
2022-11-27T03:01:20,42.805,6.029,CST-1368DR,4480,5142,12207,0.985,551
2022-11-27T03:04:21,42.805,6.029,CST-1368DR,4480,5142,12207,0.985,551
2022-11-27T03:07:23,42.805,6.029,CST-1368DR,4480,5141,12204,0.986,551
2022-11-27T03:10:24,42.805,6.029,CST-1368DR,4480,5141,12204,0.986,551
2022-11-27T03:13:26,42.805,6.029,CST-1368DR,4480,5142,12207,0.985,551
2022-11-27T03:16:27,42.805,6.029,CST-1368DR,4480,5142,12207,0.985,551
2022-11-27T03:19:29,42.805,6.029,CST-1368DR,4480,5142,12205,0.986,551
2022-11-27T03:22:31,42.805,6.029,CST-1368DR,4480,5142,12205,0.986,551
2022-11-27T03:25:32,42.805,6.029,CST-1368DR,4480,5143,12209,0.984,551
2022-11-27T03:28:34,42.805,6.029,CST-1368DR,4480,5114,12139,01.007,551
2022-11-27T03:31:35,42.805,6.029,CST-1368DR,4480,5105,12119,01.014,551
2022-11-27T03:34:37,42.805,6.029,CST-1368DR,4480,5106,12121,01.013,551
2022-11-27T03:37:39,42.805,6.029,CST-1368DR,4480,5111,12134,01.009,551
2022-11-27T03:40:40,42.805,6.029,CST-1368DR,4480,5111,12132,01.010,551
2022-11-27T03:43:42,42.805,6.029,CST-1368DR,4480,5111,12132,01.010,551
2022-11-27T03:46:43,42.805,6.029,CST-1368DR,4480,5111,12133,01.009,551
2022-11-27T03:49:45,42.805,6.029,CST-1368DR,4480,5109,12129,01.011,551
2022-11-27T03:52:46,42.805,6.029,CST-1368DR,4480,5113,12138,01.008,551
2022-11-27T03:55:48,42.805,6.029,CST-1368DR,4480,5110,12130,01.010,551
2022-11-27T03:58:50,42.805,6.029,CST-1368DR,4480,5113,12137,01.008,551
2022-11-27T04:01:51,42.805,6.029,CST-1368DR,4480,5110,12131,01.010,551
2022-11-27T04:04:53,42.805,6.029,CST-1368DR,4480,5112,12134,01.009,551
2022-11-27T04:07:54,42.805,6.029,CST-1368DR,4480,5126,12169,0.998,551
2022-11-27T04:10:56,42.805,6.029,CST-1368DR,4480,5128,12174,0.996,551
2022-11-27T04:13:57,42.805,6.029,CST-1368DR,4480,5128,12173,0.996,551
2022-11-27T04:16:59,42.805,6.029,CST-1368DR,4480,5123,12161,01.000,551
2022-11-27T04:20:01,42.805,6.029,CST-1368DR,4480,5120,12155,01.002,551
2022-11-27T04:23:02,42.805,6.029,CST-1368DR,4480,5121,12155,01.002,551
2022-11-27T04:26:04,42.805,6.029,CST-1368DR,4480,5121,12155,01.002,551
2022-11-27T04:29:05,42.805,6.029,CST-1368DR,4480,5121,12155,01.002,551
2022-11-27T04:32:07,42.805,6.029,CST-1368DR,4480,5121,12157,01.002,551
2022-11-27T04:35:09,42.805,6.029,CST-1368DR,4480,5120,12153,01.003,551
2022-11-27T04:38:10,42.805,6.029,CST-1368DR,4480,5119,12152,01.003,551
2022-11-27T04:41:12,42.805,6.029,CST-1368DR,4480,5114,12141,01.007,551
2022-11-27T04:44:13,42.805,6.029,CST-1368DR,4480,5111,12133,01.009,551
2022-11-27T04:47:15,42.805,6.029,CST-1368DR,4480,5111,12134,01.009,551
2022-11-27T04:50:16,42.805,6.029,CST-1368DR,4480,5112,12135,01.009,551
2022-11-27T04:53:18,42.805,6.029,CST-1368DR,4480,5109,12128,01.011,551
2022-11-27T04:56:20,42.805,6.029,CST-1368DR,4480,5113,12138,01.008,551
2022-11-27T04:59:21,42.805,6.029,CST-1368DR,4480,5112,12135,01.009,551
2022-11-27T05:02:23,42.805,6.029,CST-1368DR,4480,5112,12135,01.009,551
2022-11-27T05:05:24,42.805,6.029,CST-1368DR,4480,5113,12138,01.008,551
2022-11-27T05:08:26,42.805,6.029,CST-1368DR,4480,5112,12135,01.009,551
2022-11-27T05:11:28,42.805,6.029,CST-1368DR,4480,5108,12126,01.012,551
2022-11-27T05:14:29,42.805,6.029,CST-1368DR,4480,5117,12147,01.005,551
2022-11-27T05:17:31,42.805,6.029,CST-1368DR,4480,5128,12173,0.996,551
2022-11-27T05:20:32,42.805,6.029,CST-1368DR,4480,5125,12167,0.998,551
2022-11-27T05:23:34,42.805,6.029,CST-1368DR,4480,5114,12139,01.007,551
2022-11-27T05:26:35,42.805,6.029,CST-1368DR,4480,5114,12139,01.007,551
2022-11-27T05:29:37,42.805,6.029,CST-1368DR,4480,5121,12157,01.002,551
2022-11-27T05:32:39,42.805,6.029,CST-1368DR,4480,5115,12142,01.007,551
2022-11-27T05:35:40,42.805,6.029,CST-1368DR,4480,5113,12137,01.008,551
2022-11-27T05:38:42,42.805,6.029,CST-1368DR,4480,5113,12138,01.008,551
2022-11-27T05:41:43,42.805,6.029,CST-1368DR,4480,5128,12173,0.996,551
2022-11-27T05:44:45,42.805,6.029,CST-1368DR,4480,5127,12171,0.997,551
2022-11-27T05:47:46,42.805,6.029,CST-1368DR,4480,5130,12179,0.994,550
2022-11-27T05:50:48,42.805,6.029,CST-1368DR,4480,5129,12175,0.996,551
2022-11-27T05:53:50,42.805,6.029,CST-1368DR,4480,5117,12147,01.005,551
2022-11-27T05:56:51,42.805,6.029,CST-1368DR,4480,5125,12166,0.999,551
2022-11-27T05:59:53,42.805,6.029,CST-1368DR,4480,5128,12173,0.996,551
2022-11-27T06:02:54,42.805,6.029,CST-1368DR,4480,5127,12170,0.997,551
2022-11-27T06:05:56,42.805,6.029,CST-1368DR,4480,5130,12178,0.995,551
2022-11-27T06:08:58,42.805,6.029,CST-1368DR,4480,5125,12165,0.999,551
2022-11-27T06:11:59,42.805,6.029,CST-1368DR,4480,5126,12168,0.998,551
2022-11-27T06:15:01,42.805,6.029,CST-1368DR,4480,5127,12170,0.997,551
2022-11-27T06:18:02,42.805,6.029,CST-1368DR,4480,5129,12175,0.996,551
2022-11-27T06:21:04,42.805,6.029,CST-1368DR,4480,5127,12170,0.997,551
2022-11-27T06:24:05,42.805,6.029,CST-1368DR,4480,5129,12175,0.996,551
2022-11-27T06:27:07,42.805,6.029,CST-1368DR,4480,5128,12174,0.996,551
2022-11-27T06:30:09,42.805,6.029,CST-1368DR,4480,5129,12175,0.996,551
2022-11-27T06:33:10,42.805,6.029,CST-1368DR,4480,5128,12173,0.996,551
2022-11-27T06:36:12,42.805,6.029,CST-1368DR,4480,5122,12158,01.001,551
2022-11-27T06:39:13,42.805,6.029,CST-1368DR,4480,5128,12173,0.996,551
2022-11-27T06:42:15,42.805,6.029,CST-1368DR,4480,5131,12180,0.994,551
2022-11-27T06:45:16,42.805,6.029,CST-1368DR,4480,5129,12174,0.996,551
2022-11-27T06:48:18,42.805,6.029,CST-1368DR,4480,5132,12183,0.993,551
2022-11-27T06:51:20,42.805,6.029,CST-1368DR,4480,5129,12174,0.996,551
2022-11-27T06:54:21,42.805,6.029,CST-1368DR,4480,5129,12175,0.996,551
2022-11-27T06:57:23,42.805,6.029,CST-1368DR,4480,5131,12180,0.994,551
2022-11-27T07:00:24,42.805,6.029,CST-1368DR,4480,5131,12179,0.994,550
2022-11-27T07:03:26,42.805,6.029,CST-1368DR,4480,5129,12174,0.996,551
2022-11-27T07:06:28,42.805,6.029,CST-1368DR,4480,5130,12177,0.995,551
2022-11-27T07:09:29,42.805,6.029,CST-1368DR,4480,5130,12177,0.995,551
2022-11-27T07:12:31,42.805,6.029,CST-1368DR,4480,5128,12174,0.996,551
2022-11-27T07:15:32,42.805,6.029,CST-1368DR,4480,5130,12179,0.994,551
2022-11-27T07:18:34,42.805,6.029,CST-1368DR,4480,5130,12177,0.995,551
2022-11-27T07:21:35,42.805,6.029,CST-1368DR,4480,5127,12170,0.997,551
2022-11-27T07:24:37,42.805,6.029,CST-1368DR,4480,5127,12171,0.997,551
2022-11-27T07:27:39,42.805,6.029,CST-1368DR,4480,5130,12177,0.995,551
2022-11-27T07:30:40,42.805,6.029,CST-1368DR,4480,5132,12182,0.993,551
2022-11-27T07:33:42,42.805,6.029,CST-1368DR,4480,5130,12179,0.994,551
2022-11-27T07:36:43,42.805,6.029,CST-1368DR,4480,5130,12178,0.995,551
2022-11-27T07:39:45,42.805,6.029,CST-1368DR,4480,5128,12174,0.996,551
2022-11-27T07:42:46,42.805,6.029,CST-1368DR,4480,5130,12177,0.995,551
2022-11-27T07:45:48,42.805,6.029,CST-1368DR,4479,5129,12178,0.995,551
2022-11-27T07:48:50,42.805,6.029,CST-1368DR,4480,5132,12183,0.993,551
2022-11-27T07:51:51,42.805,6.029,CST-1368DR,4480,5130,12177,0.995,551
2022-11-27T07:54:53,42.805,6.029,CST-1368DR,4480,5132,12183,0.993,551
2022-11-27T07:57:54,42.805,6.029,CST-1368DR,4480,5131,12181,0.994,551
2022-11-27T08:00:56,42.805,6.029,CST-1368DR,4480,5130,12178,0.995,551
2022-11-27T08:03:58,42.805,6.029,CST-1368DR,4480,5131,12179,0.994,551
2022-11-27T08:06:59,42.805,6.029,CST-1368DR,4480,5131,12179,0.994,551
2022-11-27T08:10:01,42.805,6.029,CST-1368DR,4480,5131,12181,0.994,551
2022-11-27T08:13:02,42.805,6.029,CST-1368DR,4480,5130,12177,0.995,551
2022-11-27T08:16:04,42.805,6.029,CST-1368DR,4480,5131,12180,0.994,551
2022-11-27T08:19:05,42.805,6.029,CST-1368DR,4480,5131,12179,0.994,551
2022-11-27T08:22:07,42.805,6.029,CST-1368DR,4480,5130,12179,0.994,551
2022-11-27T08:25:09,42.805,6.029,CST-1368DR,4480,5130,12178,0.995,551
2022-11-27T08:28:10,42.805,6.029,CST-1368DR,4480,5129,12176,0.995,551
2022-11-27T08:31:12,42.805,6.029,CST-1368DR,4479,5129,12178,0.995,551
2022-11-27T08:34:13,42.805,6.029,CST-1368DR,4479,5129,12178,0.995,551
2022-11-27T08:37:15,42.805,6.029,CST-1368DR,4479,5131,12183,0.993,551
2022-11-27T08:40:17,42.805,6.029,CST-1368DR,4479,5129,12178,0.995,551
2022-11-27T08:43:18,42.805,6.029,CST-1368DR,4479,5130,12181,0.994,551
2022-11-27T08:46:20,42.805,6.029,CST-1368DR,4479,5132,12185,0.992,551
2022-11-27T08:49:21,42.805,6.029,CST-1368DR,4479,5129,12178,0.995,551
2022-11-27T08:52:23,42.805,6.029,CST-1368DR,4479,5129,12178,0.995,551
2022-11-27T08:55:24,42.805,6.029,CST-1368DR,4479,5127,12174,0.996,551
2022-11-27T08:58:26,42.805,6.029,CST-1368DR,4479,5129,12178,0.995,551
2022-11-27T09:01:28,42.805,6.029,CST-1368DR,4479,5127,12173,0.996,551
2022-11-27T09:04:29,42.805,6.029,CST-1368DR,4479,5129,12178,0.995,551
2022-11-27T09:07:31,42.805,6.029,CST-1368DR,4479,5130,12179,0.994,551
2022-11-27T09:10:32,42.805,6.029,CST-1368DR,4479,5128,12176,0.995,551
2022-11-27T09:13:34,42.805,6.029,CST-1368DR,4479,5129,12178,0.995,551
2022-11-27T09:16:35,42.805,6.029,CST-1368DR,4479,5129,12177,0.995,551
2022-11-27T09:19:37,42.805,6.029,CST-1368DR,4479,5127,12174,0.996,551
2022-11-27T09:22:39,42.805,6.029,CST-1368DR,4479,5120,12156,01.002,551
2022-11-27T09:25:40,42.805,6.029,CST-1368DR,4479,5128,12176,0.995,551
2022-11-27T09:28:42,42.805,6.029,CST-1368DR,4480,5129,12176,0.995,551
2022-11-27T09:31:43,42.805,6.029,CST-1368DR,4479,5129,12178,0.995,551
2022-11-27T09:34:45,42.805,6.029,CST-1368DR,4479,5129,12178,0.995,551
2022-11-27T09:37:47,42.805,6.029,CST-1368DR,4479,5127,12174,0.996,551
2022-11-27T09:40:48,42.805,6.029,CST-1368DR,4479,5129,12178,0.995,551
2022-11-27T09:43:50,42.805,6.029,CST-1368DR,4480,5128,12174,0.996,551
2022-11-27T09:46:51,42.805,6.029,CST-1368DR,4479,5128,12175,0.996,551
2022-11-27T09:49:53,42.805,6.029,CST-1368DR,4479,5129,12177,0.995,551
2022-11-27T09:52:54,42.805,6.029,CST-1368DR,4480,5129,12176,0.995,551
2022-11-27T09:55:56,42.805,6.029,CST-1368DR,4479,5128,12176,0.995,551
2022-11-27T09:58:58,42.805,6.029,CST-1368DR,4479,5127,12174,0.996,551
2022-11-27T10:01:59,42.805,6.029,CST-1368DR,4480,5128,12173,0.996,551
2022-11-27T10:05:01,42.805,6.029,CST-1368DR,4479,5130,12181,0.994,551
2022-11-27T10:08:02,42.805,6.029,CST-1368DR,4480,5130,12177,0.995,551
2022-11-27T10:11:04,42.805,6.029,CST-1368DR,4479,5130,12181,0.994,551
2022-11-27T10:14:05,42.805,6.029,CST-1368DR,4480,5127,12171,0.997,551
2022-11-27T10:17:07,42.805,6.029,CST-1368DR,4479,5129,12178,0.995,551
2022-11-27T10:20:09,42.805,6.029,CST-1368DR,4479,5129,12177,0.995,551
2022-11-27T10:23:10,42.805,6.029,CST-1368DR,4479,5130,12180,0.994,551
2022-11-27T10:26:12,42.805,6.029,CST-1368DR,4479,5131,12182,0.993,551
2022-11-27T10:29:13,42.805,6.029,CST-1368DR,4479,5130,12179,0.994,551
2022-11-27T10:32:15,42.805,6.029,CST-1368DR,4479,5128,12175,0.996,551
2022-11-27T10:35:17,42.805,6.029,CST-1368DR,4479,5129,12177,0.995,551
2022-11-27T10:38:18,42.805,6.029,CST-1368DR,4479,5130,12179,0.994,551
2022-11-27T10:41:20,42.805,6.029,CST-1368DR,4479,5131,12182,0.993,551
2022-11-27T10:44:21,42.805,6.029,CST-1368DR,4479,5131,12183,0.993,551
2022-11-27T10:47:23,42.805,6.029,CST-1368DR,4479,5131,12182,0.993,551
2022-11-27T10:50:24,42.805,6.029,CST-1368DR,4479,5130,12181,0.994,551
2022-11-27T10:53:26,42.805,6.029,CST-1368DR,4479,5129,12178,0.995,551
2022-11-27T10:56:28,42.805,6.029,CST-1368DR,4479,5130,12181,0.994,551
2022-11-27T10:59:29,42.805,6.029,CST-1368DR,4479,5130,12181,0.994,551
2022-11-27T11:02:31,42.805,6.029,CST-1368DR,4479,5129,12178,0.995,551
2022-11-27T11:05:32,42.805,6.029,CST-1368DR,4479,5130,12180,0.994,551
2022-11-27T11:08:34,42.805,6.029,CST-1368DR,4479,5129,12177,0.995,551
2022-11-27T11:11:35,42.805,6.029,CST-1368DR,4479,5129,12178,0.995,551
2022-11-27T11:14:37,42.805,6.029,CST-1368DR,4479,5128,12176,0.995,551
2022-11-27T11:17:39,42.805,6.029,CST-1368DR,4479,5129,12178,0.995,551
2022-11-27T11:20:40,42.805,6.029,CST-1368DR,4479,5128,12176,0.995,551
2022-11-27T11:23:42,42.805,6.029,CST-1368DR,4479,5129,12178,0.995,551
2022-11-27T11:26:43,42.805,6.029,CST-1368DR,4479,5129,12177,0.995,551
2022-11-27T11:29:45,42.805,6.029,CST-1368DR,4479,5126,12172,0.997,551
2022-11-27T11:32:47,42.805,6.029,CST-1368DR,4479,5128,12175,0.996,551
2022-11-27T11:35:48,42.805,6.029,CST-1368DR,4479,5127,12174,0.996,551
2022-11-27T11:38:50,42.805,6.029,CST-1368DR,4479,5127,12174,0.996,551
2022-11-27T11:41:51,42.805,6.029,CST-1368DR,4479,5129,12177,0.995,551
2022-11-27T11:44:53,42.805,6.029,CST-1368DR,4479,5130,12181,0.994,551
2022-11-27T11:47:54,42.805,6.029,CST-1368DR,4479,5130,12181,0.994,551
2022-11-27T11:50:56,42.805,6.029,CST-1368DR,4479,5130,12179,0.994,551
2022-11-27T11:53:58,42.805,6.029,CST-1368DR,4479,5128,12176,0.995,551
2022-11-27T11:56:59,42.805,6.029,CST-1368DR,4479,5130,12179,0.994,551
2022-11-27T12:00:01,42.805,6.029,CST-1368DR,4479,5129,12177,0.995,551
2022-11-27T12:03:02,42.805,6.029,CST-1368DR,4479,5129,12178,0.995,551
2022-11-27T12:06:04,42.805,6.029,CST-1368DR,4479,5131,12182,0.993,551
2022-11-27T12:09:05,42.805,6.029,CST-1368DR,4479,5130,12181,0.994,551
2022-11-27T12:12:07,42.805,6.029,CST-1368DR,4479,5128,12176,0.995,551
2022-11-27T12:15:09,42.805,6.029,CST-1368DR,4479,5129,12178,0.995,551
2022-11-27T12:18:10,42.805,6.029,CST-1368DR,4479,5128,12175,0.996,551
2022-11-27T12:21:12,42.805,6.029,CST-1368DR,4479,5128,12175,0.996,551
2022-11-27T12:24:13,42.805,6.029,CST-1368DR,4479,5128,12175,0.996,551
2022-11-27T12:27:15,42.805,6.029,CST-1368DR,4479,5128,12175,0.996,551
2022-11-27T12:30:16,42.805,6.029,CST-1368DR,4479,5127,12174,0.996,551
2022-11-27T12:33:18,42.805,6.029,CST-1368DR,4479,5124,12167,0.998,551
2022-11-27T12:36:20,42.805,6.029,CST-1368DR,4479,5129,12178,0.995,551
2022-11-27T12:39:21,42.805,6.029,CST-1368DR,4479,5130,12180,0.994,551
2022-11-27T12:42:23,42.805,6.029,CST-1368DR,4479,5126,12172,0.997,551
2022-11-27T12:45:24,42.805,6.029,CST-1368DR,4479,5129,12178,0.995,551
2022-11-27T12:48:26,42.805,6.029,CST-1368DR,4479,5127,12174,0.996,551
2022-11-27T12:51:28,42.805,6.029,CST-1368DR,4479,5127,12173,0.996,551
2022-11-27T12:54:29,42.805,6.029,CST-1368DR,4479,5127,12174,0.996,551
2022-11-27T12:57:31,42.805,6.029,CST-1368DR,4479,5128,12175,0.996,551
2022-11-27T13:00:32,42.805,6.029,CST-1368DR,4479,5128,12175,0.996,551
2022-11-27T13:03:34,42.805,6.029,CST-1368DR,4479,5128,12176,0.995,551
2022-11-27T13:06:35,42.805,6.029,CST-1368DR,4479,5128,12175,0.996,551
2022-11-27T13:09:37,42.805,6.029,CST-1368DR,4479,5127,12174,0.996,551
2022-11-27T13:12:39,42.805,6.029,CST-1368DR,4479,5126,12172,0.997,551
2022-11-27T13:15:40,42.805,6.029,CST-1368DR,4479,5127,12174,0.996,551
2022-11-27T13:18:42,42.805,6.029,CST-1368DR,4479,5129,12178,0.995,551
2022-11-27T13:21:43,42.805,6.029,CST-1368DR,4479,5127,12174,0.996,551
2022-11-27T13:24:45,42.805,6.029,CST-1368DR,4479,5130,12179,0.994,551
2022-11-27T13:27:47,42.805,6.029,CST-1368DR,4479,5128,12175,0.996,551
2022-11-27T13:30:48,42.805,6.029,CST-1368DR,4479,5127,12174,0.996,551
2022-11-27T13:33:50,42.805,6.029,CST-1368DR,4479,5129,12177,0.995,551
2022-11-27T13:36:51,42.805,6.029,CST-1368DR,4479,5128,12175,0.996,551
2022-11-27T13:39:53,42.805,6.029,CST-1368DR,4479,5127,12172,0.997,551
2022-11-27T13:42:54,42.805,6.029,CST-1368DR,4479,5127,12174,0.996,551
2022-11-27T13:45:56,42.805,6.029,CST-1368DR,4479,5128,12175,0.996,551
2022-11-27T13:48:58,42.805,6.029,CST-1368DR,4479,5127,12174,0.996,551
2022-11-27T13:51:59,42.805,6.029,CST-1368DR,4479,5127,12174,0.996,551
2022-11-27T13:55:01,42.805,6.029,CST-1368DR,4479,5128,12175,0.996,551
2022-11-27T13:58:02,42.805,6.029,CST-1368DR,4479,5126,12171,0.997,551
2022-11-27T14:01:04,42.805,6.029,CST-1368DR,4479,5128,12176,0.995,551
2022-11-27T14:04:05,42.805,6.029,CST-1368DR,4479,5128,12175,0.996,551
2022-11-27T14:07:07,42.805,6.029,CST-1368DR,4479,5128,12176,0.995,551
2022-11-27T14:10:09,42.805,6.029,CST-1368DR,4479,5128,12175,0.996,551
2022-11-27T14:13:10,42.805,6.029,CST-1368DR,4479,5127,12173,0.996,551
2022-11-27T14:16:12,42.805,6.029,CST-1368DR,4479,5127,12173,0.996,551
2022-11-27T14:19:13,42.805,6.029,CST-1368DR,4479,5127,12172,0.997,551
2022-11-27T14:22:15,42.805,6.029,CST-1368DR,4479,5124,12166,0.999,551
2022-11-27T14:25:17,42.805,6.029,CST-1368DR,4479,5126,12170,0.997,551
2022-11-27T14:28:18,42.805,6.029,CST-1368DR,4479,5127,12172,0.997,551
2022-11-27T14:31:20,42.805,6.029,CST-1368DR,4479,5126,12171,0.997,551
2022-11-27T14:34:21,42.805,6.029,CST-1368DR,4479,5127,12173,0.996,551
2022-11-27T14:37:23,42.805,6.029,CST-1368DR,4479,5127,12172,0.997,551
2022-11-27T14:40:24,42.805,6.029,CST-1368DR,4479,5126,12172,0.997,551
2022-11-27T14:43:26,42.805,6.029,CST-1368DR,4479,5125,12168,0.998,551
2022-11-27T14:46:28,42.805,6.029,CST-1368DR,4479,5126,12171,0.997,551
2022-11-27T14:49:29,42.805,6.029,CST-1368DR,4479,5126,12172,0.997,551
2022-11-27T14:52:31,42.805,6.029,CST-1368DR,4479,5126,12171,0.997,551
2022-11-27T14:55:32,42.805,6.029,CST-1368DR,4479,5126,12170,0.997,551
2022-11-27T14:58:34,42.805,6.029,CST-1368DR,4479,5125,12169,0.998,551
2022-11-27T15:01:35,42.805,6.029,CST-1368DR,4479,5126,12172,0.997,551
2022-11-27T15:04:37,42.805,6.029,CST-1368DR,4479,5125,12169,0.998,551
2022-11-27T15:07:39,42.805,6.029,CST-1368DR,4479,5126,12170,0.997,551
2022-11-27T15:10:40,42.805,6.029,CST-1368DR,4479,5126,12171,0.997,551
2022-11-27T15:13:42,42.805,6.029,CST-1368DR,4479,5125,12169,0.998,551
2022-11-27T15:16:43,42.805,6.029,CST-1368DR,4479,5125,12168,0.998,551
2022-11-27T15:19:45,42.805,6.029,CST-1368DR,4479,5126,12170,0.997,551
2022-11-27T15:22:47,42.805,6.029,CST-1368DR,4479,5124,12166,0.999,551
2022-11-27T15:25:48,42.805,6.029,CST-1368DR,4479,5125,12169,0.998,551
2022-11-27T15:28:50,42.805,6.029,CST-1368DR,4479,5126,12170,0.997,551
2022-11-27T15:31:51,42.805,6.029,CST-1368DR,4479,5125,12168,0.998,551
2022-11-27T15:34:53,42.805,6.029,CST-1368DR,4479,5126,12172,0.997,551
2022-11-27T15:37:54,42.805,6.029,CST-1368DR,4479,5126,12171,0.997,551
2022-11-27T15:40:56,42.805,6.029,CST-1368DR,4479,5124,12166,0.999,551
2022-11-27T15:43:58,42.805,6.029,CST-1368DR,4479,5125,12168,0.998,551
2022-11-27T15:46:59,42.805,6.029,CST-1368DR,4479,5125,12169,0.998,551
2022-11-27T15:50:01,42.805,6.029,CST-1368DR,4479,5126,12170,0.997,551
2022-11-27T15:53:02,42.805,6.029,CST-1368DR,4479,5126,12172,0.997,551
2022-11-27T15:56:04,42.805,6.029,CST-1368DR,4479,5125,12169,0.998,551
2022-11-27T15:59:05,42.805,6.029,CST-1368DR,4479,5125,12168,0.998,551
2022-11-27T16:02:07,42.805,6.029,CST-1368DR,4479,5126,12170,0.997,551
2022-11-27T16:05:09,42.805,6.029,CST-1368DR,4479,5126,12171,0.997,551
2022-11-27T16:08:10,42.805,6.029,CST-1368DR,4479,5126,12172,0.997,551
2022-11-27T16:11:12,42.805,6.029,CST-1368DR,4479,5126,12170,0.997,551
2022-11-27T16:14:13,42.805,6.029,CST-1368DR,4479,5125,12168,0.998,551
2022-11-27T16:17:15,42.805,6.029,CST-1368DR,4479,5124,12165,0.999,551
2022-11-27T16:20:17,42.805,6.029,CST-1368DR,4479,5125,12168,0.998,551
2022-11-27T16:23:18,42.805,6.029,CST-1368DR,4479,5124,12166,0.999,551
2022-11-27T16:26:20,42.805,6.029,CST-1368DR,4479,5125,12169,0.998,551
2022-11-27T16:29:21,42.805,6.029,CST-1368DR,4479,5123,12164,0.999,551
2022-11-27T16:32:23,42.805,6.029,CST-1368DR,4479,5124,12167,0.998,551
2022-11-27T16:35:24,42.805,6.029,CST-1368DR,4479,5125,12168,0.998,551
2022-11-27T16:38:26,42.805,6.029,CST-1368DR,4479,5125,12168,0.998,551
2022-11-27T16:41:28,42.805,6.029,CST-1368DR,4479,5125,12169,0.998,551
2022-11-27T16:44:29,42.805,6.029,CST-1368DR,4479,5125,12168,0.998,551
2022-11-27T16:47:31,42.805,6.029,CST-1368DR,4479,5123,12165,0.999,551
2022-11-27T16:50:32,42.805,6.029,CST-1368DR,4479,5125,12168,0.998,551